| time (UTC) | temp F | wind direction | speed MPH | gust MPH | rain 1hr in | rain 24hr in | rain mn in | humidity % | barometer mb |
| 20260503002004 | 68 | 14 | 0.0 | 1.0 | 0.00 | 0.07 | 0.01 | 63 | 1018.3 |
| 20260503001504 | 69 | 15 | 0.0 | 1.0 | 0.00 | 0.07 | 0.01 | 63 | 1018.2 |
| 20260503001004 | 69 | 27 | 0.0 | 1.0 | 0.00 | 0.07 | 0.01 | 66 | 1018.2 |
| 20260503000504 | 69 | 25 | 0.0 | 2.0 | 0.00 | 0.07 | 0.01 | 64 | 1018.2 |
| 20260503000004 | 70 | 35 | 1.0 | 2.0 | 0.00 | 0.07 | 0.01 | 63 | 1018.2 |
| 20260502235504 | 70 | 22 | 1.0 | 2.0 | 0.00 | 0.07 | 0.01 | 64 | 1018.2 |
| 20260502235004 | 70 | 11 | 1.0 | 3.0 | 0.00 | 0.07 | 0.01 | 59 | 1018.2 |
| 20260502234504 | 70 | 1 | 1.0 | 3.0 | 0.00 | 0.07 | 0.01 | 62 | 1018.2 |
| 20260502234025 | 70 | 356 | 1.0 | 3.0 | 0.00 | 0.07 | 0.01 | 62 | 1018.3 |
| 20260502233504 | 71 | 354 | 1.0 | 3.0 | 0.00 | 0.07 | 0.01 | 61 | 1018.3 |
| 20260502233004 | 71 | 7 | 1.0 | 6.0 | 0.00 | 0.07 | 0.01 | 56 | 1018.2 |
| 20260502232505 | 72 | 334 | 1.0 | 6.0 | 0.00 | 0.08 | 0.01 | 57 | 1018.2 |
| 20260502232004 | 72 | 316 | 1.0 | 3.0 | 0.00 | 0.08 | 0.01 | 59 | 1018.2 |
| 20260502231504 | 73 | 360 | 1.0 | 2.0 | 0.00 | 0.08 | 0.01 | 60 | 1018.2 |
| 20260502231004 | 73 | 42 | 1.0 | 5.0 | 0.00 | 0.09 | 0.01 | 59 | 1018.2 |
| 20260502230504 | 73 | 36 | 1.0 | 5.0 | 0.00 | 0.11 | 0.01 | 52 | 1018.2 |
| 20260502230004 | 72 | 27 | 2.0 | 6.0 | 0.00 | 0.12 | 0.01 | 52 | 1018.3 |
| 20260502225504 | 72 | 14 | 2.0 | 6.0 | 0.00 | 0.12 | 0.01 | 53 | 1018.3 |
| 20260502225004 | 72 | 344 | 1.0 | 4.0 | 0.00 | 0.13 | 0.01 | 58 | 1018.3 |
| 20260502224504 | 72 | 341 | 1.0 | 3.0 | 0.00 | 0.14 | 0.01 | 52 | 1018.2 |
| 20260502224004 | 72 | 344 | 1.0 | 3.0 | 0.00 | 0.14 | 0.01 | 51 | 1018.2 |
| 20260502223504 | 72 | 352 | 1.0 | 5.0 | 0.00 | 0.14 | 0.01 | 50 | 1018.3 |
| 20260502223004 | 73 | 347 | 2.0 | 8.0 | 0.00 | 0.15 | 0.01 | 48 | 1018.3 |
| 20260502222504 | 73 | 353 | 2.0 | 8.0 | 0.00 | 0.15 | 0.01 | 48 | 1018.2 |
| 20260502222004 | 74 | 4 | 2.0 | 5.0 | 0.00 | 0.15 | 0.01 | 52 | 1018.2 |
| 20260502221525 | 74 | 345 | 2.0 | 5.0 | 0.00 | 0.16 | 0.01 | 48 | 1018.2 |
| 20260502221004 | 74 | 353 | 2.0 | 5.0 | 0.00 | 0.16 | 0.01 | 49 | 1018.3 |
| 20260502220504 | 74 | 359 | 2.0 | 5.0 | 0.00 | 0.16 | 0.01 | 51 | 1018.2 |
| 20260502220004 | 74 | 7 | 2.0 | 6.0 | 0.00 | 0.16 | 0.01 | 50 | 1018.2 |
| 20260502215504 | 74 | 21 | 2.0 | 6.0 | 0.00 | 0.16 | 0.01 | 51 | 1018.2 |
| 20260502215025 | 74 | 16 | 2.0 | 6.0 | 0.00 | 0.16 | 0.01 | 47 | 1018.2 |
| 20260502214525 | 74 | 22 | 2.0 | 7.0 | 0.00 | 0.16 | 0.01 | 50 | 1018.3 |
| 20260502214004 | 75 | 4 | 3.0 | 9.0 | 0.00 | 0.17 | 0.01 | 47 | 1018.3 |
| 20260502213504 | 75 | 7 | 3.0 | 9.0 | 0.00 | 0.17 | 0.01 | 47 | 1018.3 |
| 20260502213004 | 75 | 357 | 2.0 | 9.0 | 0.00 | 0.17 | 0.01 | 47 | 1018.2 |
| 20260502212504 | 76 | 309 | 2.0 | 6.0 | 0.00 | 0.17 | 0.01 | 49 | 1018.3 |
| 20260502212004 | 76 | 309 | 1.0 | 5.0 | 0.00 | 0.18 | 0.01 | 47 | 1018.1 |
| 20260502211504 | 76 | 357 | 2.0 | 6.0 | 0.00 | 0.19 | 0.01 | 50 | 1018.2 |
| 20260502211004 | 75 | 360 | 2.0 | 6.0 | 0.00 | 0.20 | 0.01 | 48 | 1018.3 |
| 20260502210504 | 75 | 355 | 2.0 | 5.0 | 0.00 | 0.20 | 0.01 | 50 | 1018.3 |
| 20260502210004 | 76 | 353 | 2.0 | 6.0 | 0.00 | 0.21 | 0.01 | 47 | 1018.4 |
| 20260502205504 | 76 | 7 | 2.0 | 8.0 | 0.00 | 0.21 | 0.01 | 47 | 1018.4 |
| 20260502205005 | 76 | 14 | 2.0 | 8.0 | 0.00 | 0.21 | 0.01 | 49 | 1018.4 |
| 20260502204504 | 76 | 14 | 2.0 | 6.0 | 0.00 | 0.21 | 0.01 | 46 | 1018.5 |
| 20260502204004 | 75 | 7 | 3.0 | 6.0 | 0.00 | 0.22 | 0.01 | 46 | 1018.6 |
| 20260502203504 | 75 | 357 | 3.0 | 7.0 | 0.00 | 0.22 | 0.01 | 51 | 1018.7 |
| 20260502203004 | 75 | 355 | 3.0 | 7.0 | 0.00 | 0.22 | 0.01 | 50 | 1018.7 |
| 20260502202525 | 75 | 342 | 2.0 | 7.0 | 0.00 | 0.22 | 0.01 | 50 | 1018.8 |
| 20260502202004 | 76 | 322 | 2.0 | 8.0 | 0.00 | 0.22 | 0.01 | 46 | 1018.9 |
| 20260502201503 | 75 | 355 | 2.0 | 8.0 | 0.00 | 0.22 | 0.01 | 47 | 1018.9 |
| 20260502201004 | 75 | 351 | 2.0 | 8.0 | 0.00 | 0.22 | 0.01 | 45 | 1018.9 |
| 20260502200525 | 74 | 334 | 2.0 | 4.0 | 0.00 | 0.22 | 0.01 | 46 | 1018.9 |
| 20260502200025 | 75 | 325 | 2.0 | 5.0 | 0.00 | 0.22 | 0.01 | 47 | 1019.1 |
| 20260502195503 | 75 | 358 | 2.0 | 5.0 | 0.00 | 0.22 | 0.01 | 48 | 1019.1 |
| 20260502195004 | 75 | 8 | 2.0 | 5.0 | 0.00 | 0.22 | 0.01 | 47 | 1019.2 |
| 20260502194504 | 74 | 39 | 3.0 | 7.0 | 0.00 | 0.22 | 0.01 | 50 | 1019.3 |
| 20260502194003 | 75 | 22 | 3.0 | 7.0 | 0.00 | 0.22 | 0.01 | 52 | 1019.3 |
| 20260502193525 | 74 | 310 | 2.0 | 6.0 | 0.00 | 0.22 | 0.01 | 49 | 1019.3 |
| 20260502193004 | 75 | 313 | 2.0 | 5.0 | 0.00 | 0.22 | 0.01 | 53 | 1019.5 |
| 20260502192504 | 74 | 327 | 2.0 | 5.0 | 0.00 | 0.22 | 0.01 | 52 | 1019.6 |
| 20260502192003 | 74 | 344 | 2.0 | 7.0 | 0.00 | 0.22 | 0.01 | 54 | 1019.7 |
| 20260502191504 | 74 | 14 | 3.0 | 7.0 | 0.00 | 0.22 | 0.01 | 52 | 1019.7 |
| 20260502191003 | 75 | 5 | 2.0 | 6.0 | 0.00 | 0.22 | 0.01 | 49 | 1019.7 |
| 20260502190504 | 74 | 334 | 2.0 | 5.0 | 0.00 | 0.22 | 0.01 | 52 | 1019.7 |
| 20260502190004 | 74 | 345 | 2.0 | 7.0 | 0.00 | 0.22 | 0.01 | 53 | 1019.8 |
| 20260502185504 | 74 | 16 | 2.0 | 8.0 | 0.00 | 0.22 | 0.01 | 52 | 1019.9 |
| 20260502185025 | 74 | 359 | 2.0 | 8.0 | 0.00 | 0.22 | 0.01 | 55 | 1019.9 |
| 20260502184503 | 74 | 347 | 2.0 | 5.0 | 0.00 | 0.22 | 0.01 | 50 | 1020.0 |
| 20260502184025 | 74 | 349 | 2.0 | 7.0 | 0.00 | 0.22 | 0.01 | 55 | 1020.0 |
| 20260502183504 | 72 | 349 | 2.0 | 7.0 | 0.00 | 0.22 | 0.01 | 50 | 1020.1 |
| 20260502183004 | 73 | 14 | 2.0 | 4.0 | 0.00 | 0.22 | 0.01 | 56 | 1020.1 |
| 20260502182525 | 73 | 58 | 3.0 | 10.0 | 0.00 | 0.22 | 0.01 | 53 | 1020.2 |
| 20260502182004 | 73 | 54 | 3.0 | 10.0 | 0.00 | 0.22 | 0.01 | 51 | 1020.4 |
| 20260502181504 | 73 | 33 | 3.0 | 10.0 | 0.00 | 0.22 | 0.01 | 51 | 1020.5 |
| 20260502181004 | 73 | 27 | 3.0 | 10.0 | 0.00 | 0.22 | 0.01 | 50 | 1020.4 |
| 20260502180503 | 73 | 17 | 2.0 | 5.0 | 0.00 | 0.22 | 0.01 | 54 | 1020.5 |
| 20260502170504 | 71 | 79 | 2.0 | 6.0 | 0.00 | 0.23 | 0.01 | 61 | 1021.0 |
| 20260502164004 | 70 | 332 | 2.0 | 6.0 | 0.00 | 0.24 | 0.01 | 63 | 1021.1 |
| 20260502163504 | 70 | 346 | 2.0 | 4.0 | 0.00 | 0.24 | 0.01 | 64 | 1021.2 |
| 20260502163011 | 70 | 12 | 2.0 | 5.0 | 0.00 | 0.25 | 0.01 | 61 | 1021.1 |
| 20260502162504 | 70 | 26 | 2.0 | 5.0 | 0.00 | 0.25 | 0.01 | 65 | 1021.1 |
| 20260502162025 | 70 | 48 | 2.0 | 5.0 | 0.00 | 0.25 | 0.01 | 61 | 1021.1 |
| 20260502161504 | 70 | 48 | 3.0 | 5.0 | 0.00 | 0.25 | 0.01 | 66 | 1021.1 |
| 20260502161004 | 69 | 33 | 2.0 | 5.0 | 0.01 | 0.25 | 0.01 | 65 | 1021.0 |
| 20260502160525 | 68 | 340 | 1.0 | 6.0 | 0.01 | 0.25 | 0.01 | 71 | 1021.1 |
| 20260502152003 | 66 | 31 | 2.0 | 6.0 | 0.01 | 0.27 | 0.01 | 73 | 1020.9 |
| 20260502151503 | 65 | 30 | 2.0 | 7.0 | 0.01 | 0.27 | 0.01 | 77 | 1021.0 |
| 20260502151003 | 65 | 28 | 2.0 | 7.0 | 0.00 | 0.27 | 0.00 | 78 | 1021.0 |
| 20260502150503 | 65 | 28 | 1.0 | 5.0 | 0.00 | 0.27 | 0.00 | 82 | 1020.9 |
| 20260502130503 | 51 | 74 | 0.0 | 3.0 | 0.00 | 0.43 | 0.00 | 96 | 1019.6 |
| 20260502123503 | 49 | 308 | 0.0 | 1.0 | 0.00 | 0.46 | 0.00 | 96 | 1019.2 |
| 20260502123003 | 49 | 350 | 0.0 | 1.0 | 0.00 | 0.47 | 0.00 | 96 | 1019.1 |
| 20260502122503 | 49 | 101 | 0.0 | 1.0 | 0.00 | 0.47 | 0.00 | 96 | 1019.1 |
| 20260502122003 | 49 | 43 | 0.0 | 1.0 | 0.00 | 0.48 | 0.00 | 96 | 1019.1 |
| 20260502121503 | 49 | 36 | 0.0 | 1.0 | 0.00 | 0.48 | 0.00 | 96 | 1019.1 |
| 20260502121004 | 49 | 111 | 0.0 | 1.0 | 0.00 | 0.49 | 0.00 | 96 | 1018.9 |
| 20260502120506 | 49 | 160 | 0.0 | 1.0 | 0.00 | 0.50 | 0.00 | 96 | 1018.8 |
| 20260502115503 | 49 | 208 | 0.0 | 1.0 | 0.00 | 0.52 | 0.00 | 96 | 1018.5 |
| 20260502115003 | 49 | 202 | 0.0 | 1.0 | 0.00 | 0.53 | 0.00 | 96 | 1018.4 |
| 20260502114503 | 49 | 136 | 0.0 | 1.0 | 0.00 | 0.55 | 0.00 | 96 | 1018.2 |
| 20260502114024 | 49 | 35 | 0.0 | 1.0 | 0.00 | 0.55 | 0.00 | 95 | 1018.2 |
| 20260502113503 | 49 | 22 | 0.0 | 1.0 | 0.00 | 0.56 | 0.00 | 96 | 1018.1 |
| 20260502113004 | 49 | 9 | 0.0 | 1.0 | 0.00 | 0.57 | 0.00 | 96 | 1018.1 |
| 20260502112503 | 49 | 350 | 0.0 | 1.0 | 0.00 | 0.57 | 0.00 | 95 | 1018.1 |
| 20260502112004 | 49 | 122 | 0.0 | 1.0 | 0.00 | 0.58 | 0.00 | 95 | 1018.2 |
| 20260502111503 | 49 | 137 | 0.0 | 1.0 | 0.00 | 0.59 | 0.00 | 96 | 1018.1 |
| 20260502111003 | 49 | 140 | 0.0 | 1.0 | 0.00 | 0.59 | 0.00 | 96 | 1017.9 |
| 20260502110503 | 50 | 258 | 0.0 | 1.0 | 0.00 | 0.60 | 0.00 | 96 | 1017.9 |
| 20260502110024 | 50 | 229 | 0.0 | 1.0 | 0.00 | 0.60 | 0.00 | 96 | 1017.9 |
| 20260502105510 | 50 | 219 | 0.0 | 1.0 | 0.00 | 0.60 | 0.00 | 96 | 1017.8 |
| 20260502105003 | 50 | 0 | 0.0 | 0.0 | 0.00 | 0.61 | 0.00 | 96 | 1017.8 |
| 20260502104503 | 50 | 198 | 0.0 | 1.0 | 0.00 | 0.61 | 0.00 | 96 | 1017.7 |
| 20260502104004 | 50 | 228 | 0.0 | 1.0 | 0.00 | 0.61 | 0.00 | 96 | 1017.6 |
| 20260502103503 | 50 | 247 | 0.0 | 1.0 | 0.00 | 0.61 | 0.00 | 96 | 1017.6 |
| 20260502103003 | 50 | 303 | 0.0 | 1.0 | 0.00 | 0.62 | 0.00 | 96 | 1017.5 |
| 20260502102503 | 50 | 17 | 0.0 | 1.0 | 0.00 | 0.62 | 0.00 | 96 | 1017.5 |
| 20260502101503 | 50 | 0 | 0.0 | 0.0 | 0.00 | 0.63 | 0.00 | 96 | 1017.4 |
| 20260502101003 | 51 | 0 | 0.0 | 0.0 | 0.00 | 0.64 | 0.00 | 96 | 1017.3 |
| 20260502100504 | 51 | 271 | 0.0 | 1.0 | 0.00 | 0.64 | 0.00 | 96 | 1017.3 |
| 20260502091503 | 52 | 339 | 0.0 | 2.0 | 0.00 | 0.65 | 0.00 | 96 | 1017.0 |
| 20260502091003 | 52 | 327 | 0.0 | 2.0 | 0.00 | 0.65 | 0.00 | 96 | 1017.1 |
| 20260502090524 | 52 | 313 | 0.0 | 2.0 | 0.00 | 0.65 | 0.00 | 96 | 1017.0 |
| 20260502071524 | 53 | 349 | 1.0 | 2.0 | 0.00 | 0.65 | 0.00 | 96 | 1016.7 |
| 20260502071003 | 53 | 346 | 1.0 | 2.0 | 0.00 | 0.65 | 0.00 | 96 | 1016.7 |
| 20260502070503 | 53 | 341 | 1.0 | 2.0 | 0.00 | 0.65 | 0.00 | 96 | 1016.7 |
| 20260502070003 | 53 | 333 | 1.0 | 2.0 | 0.00 | 0.65 | 0.00 | 96 | 1016.6 |
| 20260502065524 | 53 | 327 | 1.0 | 2.0 | 0.00 | 0.65 | 0.00 | 96 | 1016.5 |
| 20260502065003 | 53 | 326 | 1.0 | 2.0 | 0.00 | 0.65 | 0.00 | 96 | 1016.5 |
| 20260502064503 | 53 | 321 | 0.0 | 1.0 | 0.00 | 0.65 | 0.00 | 96 | 1016.5 |
| 20260502064024 | 53 | 335 | 1.0 | 2.0 | 0.00 | 0.65 | 0.00 | 96 | 1016.4 |
| 20260502063503 | 53 | 340 | 1.0 | 2.0 | 0.00 | 0.66 | 0.00 | 96 | 1016.4 |
| 20260502063003 | 53 | 330 | 1.0 | 2.0 | 0.00 | 0.66 | 0.00 | 96 | 1016.4 |
| 20260502062503 | 53 | 316 | 1.0 | 2.0 | 0.00 | 0.66 | 0.00 | 96 | 1016.5 |
| 20260502062024 | 53 | 324 | 1.0 | 2.0 | 0.00 | 0.66 | 0.00 | 96 | 1016.5 |
| 20260502061503 | 53 | 62 | 1.0 | 2.0 | 0.00 | 0.67 | 0.00 | 96 | 1016.4 |
| 20260502061003 | 53 | 144 | 0.0 | 2.0 | 0.00 | 0.67 | 0.00 | 95 | 1016.3 |
| 20260502060524 | 53 | 349 | 0.0 | 1.0 | 0.00 | 0.67 | 0.00 | 95 | 1016.5 |
| 20260502060003 | 53 | 324 | 0.0 | 1.0 | 0.00 | 0.67 | 0.00 | 95 | 1016.6 |
| 20260502055503 | 53 | 349 | 0.0 | 1.0 | 0.00 | 0.67 | 0.00 | 95 | 1016.6 |
| 20260502055003 | 53 | 322 | 0.0 | 1.0 | 0.00 | 0.67 | 0.00 | 95 | 1016.5 |
| 20260502054503 | 53 | 313 | 0.0 | 1.0 | 0.00 | 0.68 | 0.00 | 95 | 1016.6 |
| 20260502054003 | 53 | 323 | 0.0 | 1.0 | 0.00 | 0.68 | 0.00 | 96 | 1016.6 |
| 20260502053524 | 53 | 330 | 1.0 | 2.0 | 0.00 | 0.68 | 0.00 | 96 | 1016.6 |
| 20260502053003 | 53 | 333 | 1.0 | 2.0 | 0.00 | 0.68 | 0.00 | 96 | 1016.7 |
| 20260502052503 | 53 | 355 | 1.0 | 1.0 | 0.00 | 0.68 | 0.00 | 95 | 1016.7 |
| 20260502052024 | 53 | 1 | 0.0 | 1.0 | 0.00 | 0.68 | 0.00 | 96 | 1016.8 |
| 20260502051503 | 53 | 330 | 0.0 | 1.0 | 0.00 | 0.68 | 0.00 | 96 | 1016.9 |
| 20260502051003 | 53 | 321 | 0.0 | 1.0 | 0.00 | 0.68 | 0.00 | 96 | 1017.0 |
| 20260502050503 | 53 | 328 | 0.0 | 1.0 | 0.00 | 0.68 | 0.00 | 96 | 1016.9 |
| 20260502050003 | 53 | 333 | 0.0 | 1.0 | 0.00 | 0.68 | 0.00 | 96 | 1016.9 |
| 20260502045503 | 53 | 335 | 0.0 | 1.0 | 0.00 | 0.68 | 0.68 | 96 | 1016.9 |
| 20260502044503 | 53 | 317 | 0.0 | 2.0 | 0.00 | 0.68 | 0.68 | 96 | 1016.9 |
| 20260502044003 | 53 | 317 | 0.0 | 2.0 | 0.00 | 0.68 | 0.68 | 95 | 1016.9 |
| 20260502043503 | 53 | 261 | 0.0 | 2.0 | 0.00 | 0.68 | 0.68 | 95 | 1016.9 |
| 20260502043004 | 53 | 9 | 0.0 | 2.0 | 0.00 | 0.68 | 0.68 | 95 | 1017.0 |
| 20260502042504 | 53 | 351 | 0.0 | 2.0 | 0.00 | 0.68 | 0.68 | 95 | 1016.8 |
| 20260502042004 | 53 | 333 | 1.0 | 2.0 | 0.00 | 0.68 | 0.68 | 95 | 1016.8 |
| 20260502041525 | 53 | 334 | 1.0 | 2.0 | 0.00 | 0.68 | 0.68 | 95 | 1016.8 |
| 20260502041004 | 53 | 335 | 1.0 | 2.0 | 0.00 | 0.68 | 0.68 | 95 | 1016.8 |
| 20260502040504 | 53 | 330 | 1.0 | 2.0 | 0.00 | 0.68 | 0.68 | 96 | 1016.8 |
| 20260502040025 | 53 | 325 | 0.0 | 2.0 | 0.00 | 0.68 | 0.68 | 95 | 1016.7 |
| 20260502035504 | 53 | 338 | 1.0 | 2.0 | 0.00 | 0.68 | 0.68 | 95 | 1016.8 |
| 20260502035004 | 53 | 333 | 1.0 | 2.0 | 0.00 | 0.68 | 0.68 | 95 | 1016.7 |
| 20260502034504 | 53 | 318 | 0.0 | 2.0 | 0.00 | 0.68 | 0.68 | 95 | 1016.7 |
| 20260502034004 | 53 | 1 | 0.0 | 3.0 | 0.00 | 0.68 | 0.68 | 95 | 1016.5 |
| 20260502033525 | 52 | 7 | 1.0 | 3.0 | 0.00 | 0.68 | 0.68 | 95 | 1016.5 |
| 20260502033004 | 52 | 357 | 1.0 | 2.0 | 0.00 | 0.68 | 0.68 | 95 | 1016.6 |
| 20260502032504 | 52 | 332 | 1.0 | 2.0 | 0.00 | 0.68 | 0.68 | 95 | 1016.6 |
| 20260502032004 | 52 | 320 | 1.0 | 3.0 | 0.00 | 0.68 | 0.68 | 95 | 1016.6 |
| 20260502031504 | 52 | 348 | 1.0 | 3.0 | 0.00 | 0.68 | 0.68 | 95 | 1016.2 |
| 20260502031028 | 52 | 5 | 1.0 | 3.0 | 0.00 | 0.68 | 0.68 | 95 | 1015.8 |
| 20260502030504 | 52 | 9 | 1.0 | 2.0 | 0.01 | 0.69 | 0.68 | 95 | 1016.2 |
| 20260502030004 | 52 | 359 | 1.0 | 2.0 | 0.01 | 0.69 | 0.68 | 95 | 1016.4 |
| 20260502025504 | 52 | 350 | 1.0 | 2.0 | 0.01 | 0.69 | 0.68 | 95 | 1016.7 |
| 20260502025004 | 52 | 343 | 1.0 | 2.0 | 0.01 | 0.69 | 0.68 | 95 | 1016.6 |
| 20260502024504 | 52 | 323 | 1.0 | 2.0 | 0.01 | 0.69 | 0.68 | 95 | 1016.8 |
| 20260502024004 | 52 | 336 | 1.0 | 3.0 | 0.01 | 0.69 | 0.68 | 95 | 1016.8 |
| 20260502023504 | 52 | 331 | 1.0 | 3.0 | 0.01 | 0.69 | 0.68 | 95 | 1016.6 |
| 20260502023004 | 52 | 332 | 1.0 | 4.0 | 0.02 | 0.69 | 0.68 | 95 | 1016.5 |
| 20260502022504 | 52 | 339 | 2.0 | 4.0 | 0.02 | 0.69 | 0.68 | 95 | 1016.2 |
| 20260502022025 | 52 | 339 | 2.0 | 3.0 | 0.02 | 0.69 | 0.68 | 95 | 1016.0 |
| 20260502021504 | 52 | 347 | 2.0 | 7.0 | 0.02 | 0.69 | 0.68 | 95 | 1015.7 |
| 20260502021004 | 52 | 343 | 2.0 | 7.0 | 0.03 | 0.69 | 0.68 | 95 | 1015.6 |
| 20260502020504 | 52 | 330 | 2.0 | 4.0 | 0.02 | 0.68 | 0.67 | 95 | 1015.6 |
| 20260502020004 | 52 | 341 | 2.0 | 4.0 | 0.03 | 0.68 | 0.67 | 95 | 1015.5 |
| 20260502015504 | 53 | 355 | 2.0 | 3.0 | 0.03 | 0.68 | 0.67 | 95 | 1015.5 |
| 20260502015004 | 53 | 358 | 1.0 | 4.0 | 0.03 | 0.68 | 0.67 | 95 | 1015.6 |
| 20260502014504 | 53 | 355 | 1.0 | 4.0 | 0.03 | 0.68 | 0.67 | 95 | 1015.8 |
| 20260502014025 | 53 | 346 | 1.0 | 5.0 | 0.03 | 0.69 | 0.67 | 95 | 1015.8 |
| 20260502013504 | 53 | 344 | 1.0 | 5.0 | 0.04 | 0.69 | 0.67 | 95 | 1015.9 |
| 20260502013004 | 53 | 335 | 1.0 | 4.0 | 0.03 | 0.68 | 0.66 | 95 | 1016.0 |
| 20260502012504 | 53 | 319 | 1.0 | 3.0 | 0.04 | 0.68 | 0.66 | 95 | 1015.8 |
| 20260502012004 | 53 | 319 | 1.0 | 3.0 | 0.04 | 0.68 | 0.66 | 95 | 1015.6 |
| 20260502011504 | 53 | 343 | 2.0 | 6.0 | 0.04 | 0.68 | 0.66 | 95 | 1015.4 |
| 20260502011025 | 53 | 347 | 2.0 | 6.0 | 0.03 | 0.67 | 0.65 | 95 | 1015.2 |
| 20260502010504 | 53 | 337 | 2.0 | 5.0 | 0.03 | 0.67 | 0.65 | 95 | 1015.1 |
| 20260502010025 | 54 | 330 | 1.0 | 5.0 | 0.02 | 0.66 | 0.64 | 95 | 1014.9 |
| 20260502005504 | 54 | 343 | 1.0 | 3.0 | 0.02 | 0.66 | 0.64 | 95 | 1014.9 |
| 20260502005004 | 54 | 345 | 1.0 | 4.0 | 0.02 | 0.66 | 0.64 | 95 | 1014.8 |
| 20260502004504 | 54 | 323 | 1.0 | 4.0 | 0.02 | 0.66 | 0.64 | 95 | 1014.9 |
| 20260502004004 | 54 | 3 | 1.0 | 3.0 | 0.02 | 0.66 | 0.64 | 95 | 1014.8 |
| 20260502003504 | 54 | 15 | 2.0 | 5.0 | 0.01 | 0.65 | 0.63 | 95 | 1014.4 |
| 20260502003004 | 54 | 7 | 2.0 | 5.0 | 0.01 | 0.65 | 0.63 | 95 | 1014.4 |
| 20260502002504 | 54 | 349 | 1.0 | 3.0 | 0.01 | 0.64 | 0.62 | 95 | 1014.3 |